Regional Weather Roundup
Issued by NWS Jackson, KY

Home | Current Version | Previous Version | Graphics & Text | Print | Product List | Glossary On
Versions: 1 2 3 4 5 6 7 8 9 10 11 12 13 14 15 16 17 18 19 20 21 22 23 24 25 26 27
000
ASUS43 KJKL 171510
RWRJKL

EAST KENTUCKY HOURLY WEATHER ROUNDUP
NATIONAL WEATHER SERVICE JACKSON KY
1100 AM EDT THU AUG 17 2017

NOTE: "FAIR" INDICATES FEW OR NO CLOUDS BELOW 12,000 FEET WITH
NO SIGNIFICANT WEATHER AND/OR OBSTRUCTIONS TO VISIBILITY.

* THESE REPORTS ARE NOT UNDER NWS QUALITY CONTROL AND MAY NOT
  REPORT WEATHER SUCH AS PRECIPITATION AND FOG.

KYZ079-080-083-085-087-088-110-112-115-119-120-171600
...EASTERN KENTUCKY...

CITY           SKY/WX    TMP DP  RH WIND       PRES   REMARKS
JACKSON        CLOUDY    78  73  84 CALM      30.06S
LONDON         CLOUDY    81  73  76 W7        30.06S
SOMERSET*      PTSUNNY   81  72  74 W12       30.05F
MONTICELLO*    PTSUNNY   84  75  74 W15       30.06F HX  92
WILLIAMSBURG*  PTSUNNY   82  75  78 SW7       30.06F
MIDDLESBORO*   PTSUNNY   82  73  75 S7        30.08F
HARLAN APT*    PTSUNNY   77  70  78 CALM      30.09F
PIKE CO APT*     N/A     80  77  90 SW3       30.08S
BIG SANDY APT* PTSUNNY   82  75  79 SW6       30.05F
MOREHEAD APT*  CLOUDY    81  73  78 SW8       30.03F
$$

KYZ035-036-041-042-044-050-067-078-099-171600
...CENTRAL KENTUCKY...

CITY           SKY/WX    TMP DP  RH WIND       PRES   REMARKS
MT STERLING*   LGT RAIN  79  75  89 W10       30.03S
FLEMING/MASON* CLOUDY    84  76  77 SW7       30.00F HX  93
DANVILLE*      PTSUNNY   82  73  74 SW10      30.03S
LEXINGTON      PTSUNNY   83  74  74 SW10      30.00F
FRANKFORT      CLOUDY    82  74  76 SW10      29.98S
LOUISVILLE     MOSUNNY   88  74  63 SW14      29.93F HX  96
LEBANON*       PTSUNNY   82  73  74 S10G17    30.00S
GLASGOW*       MOSUNNY   83  73  69 SW12      30.01S
BOWLING GREEN  SUNNY     85  75  72 SW14      29.99S HX  93
$$

KYZ091>093-OHZ055-061-077-WVZ005-015-034-035-042-171600
...SOUTHERN OHIO/WEST VIRGINIA...

CITY           SKY/WX    TMP DP  RH WIND       PRES   REMARKS
COVINGTON      PTSUNNY   82  77  84 S14G22    29.94F HX  90
COLUMBUS       MOSUNNY   80  77  90 S10       29.95F
DAYTON         PTSUNNY   81  73  76 SW14G23   29.94F
WILMINGTON     MOSUNNY   83  76  79 SW13G21   29.95F HX  91
HUNTINGTON     MOSUNNY   83  74  74 S6        30.00F
CHARLESTON     MOSUNNY   82  72  71 SW7       30.03F
PINEVILLE*     MOSUNNY   81  72  73 MISG      30.14F
BECKLEY        PTSUNNY   77  70  79 W5        30.13F
BLUEFIELD      CLOUDY    76  67  73 NW8       30.16F
LOGAN CO APT*  PTSUNNY   79  73  83 VRB6      30.08S
$$

VAZ002-007-008-TNZ017-027-036-066-071-171600
...SOUTHWEST VIRGINIA/EAST TENNESSEE...

CITY           SKY/WX    TMP DP  RH WIND       PRES   REMARKS
WISE*          CLOUDY    73  73 100 SW10      30.17S
JONESVILLE*      N/A     75  73  94 SW3       30.12F
ABINGDON*      CLOUDY    78  74  86 W6        30.15R
BRISTOL        PTSUNNY   78  73  84 CALM      30.11S
MORRISTOWN*    CLOUDY    79  73  83 W9        30.09S
SEVIERVILLE*   PTSUNNY   79  72  78 SW9       30.08F
KNOXVILLE      CLOUDY    81  74  79 S13       30.07F
OAK RIDGE      MOSUNNY   81  73  76 VRB5      30.08F
CROSSVILLE     PTSUNNY   79  71  76 W12       30.12F
NASHVILLE      MOSUNNY   84  73  69 SW7       30.04R HX  90
$$

...KEY TO REMARKS...
VSB - VISIBILITY IN MILES
WCI - WIND CHILL INDEX
HX  - HEAT INDEX

$$




USA.gov is the U.S. government's official web portal to all federal, state and local government web resources and services.